RH
23 24 27 33 40 41 38 34 29 25 21 15 13 12 8 12 17 18 20 23 26 25 25 24 23 23 20 18 20 25 30 33 37 35 30 22 17 14 11 10 10 10 11 15 19 20 19 18 17 16 16 17 16 15 14 14 13 11 17 21 21 23 19 15 15 11 25 53 64 73 80 80 87 85 81 81 83 97 95 90 91 84 79 72 73 81 84 83
23 23 25 29 33 36 37 35 32 27 22 16 13 12 9 16 23 24 26 26 25 24 24 23 22 22 22 20 19 22 25 28 32 30 24 15 11 11 11 9 7 8 14 19 19 18 18 18 18 17 17 16 14 13 12 11 10 11 17 21 20 21 16 12 11 9 25 47 54 65 74 75 80 79 74 79 90 91 93 99 95 93 95 85 79 81 83 84
25 24 25 29 31 33 34 34 33 29 24 18 13 11 10 18 27 27 27 26 24 24 23 23 22 22 21 21 21 21 23 26 26 22 17 12 10 12 12 9 9 12 17 19 17 17 17 17 17 18 17 16 14 11 11 10 9 10 12 17 17 16 13 9 14 20 36 52 57 66 73 75 75 74 74 81 88 86 90 97 96 100 101 95 91 88 87 87
25 27 26 29 32 34 34 33 33 30 26 19 14 11 10 20 30 29 28 26 23 23 24 24 23 21 21 20 21 20 23 27 21 16 13 11 11 13 14 12 13 16 16 16 16 16 16 16 17 18 18 17 15 11 11 10 9 10 10 14 12 11 11 7 23 39 49 58 65 70 74 77 75 73 75 78 87 93 95 95 97 100 99 95 90 86 86 88
25 27 28 29 32 35 35 33 32 29 25 20 15 12 10 21 30 30 28 25 22 24 25 25 23 21 20 18 19 20 25 27 19 14 11 10 12 13 15 13 14 15 15 16 16 17 16 16 18 18 17 15 14 11 11 9 9 10 9 11 9 10 10 7 27 47 52 60 67 72 75 80 80 82 80 77 89 99 95 94 97 97 97 96 88 83 84 90
27 27 28 30 31 34 35 33 31 29 24 18 15 12 11 20 30 30 26 23 23 25 24 23 22 20 18 17 18 22 28 28 18 14 11 10 13 13 15 15 16 16 17 17 16 17 16 16 17 16 14 13 13 12 11 9 8 9 9 9 8 10 8 15 37 50 55 63 69 74 79 84 89 95 91 87 94 95 90 91 97 95 93 95 94 91 92 95
27 28 28 28 30 32 33 32 30 28 23 17 15 12 11 19 28 28 24 23 24 24 23 21 20 18 17 17 19 25 30 27 18 15 11 9 13 13 14 16 17 18 17 17 15 16 16 15 16 15 14 13 14 12 11 10 8 9 10 7 9 9 5 21 46 54 60 68 73 78 82 86 92 98 97 98 97 93 93 93 94 93 88 87 87 88 89 87
23 29 28 27 28 30 32 32 29 27 21 15 15 12 13 20 26 25 23 24 24 24 22 20 19 17 17 18 20 27 27 21 19 18 11 10 13 13 15 17 17 18 16 16 15 15 17 16 14 13 13 13 12 11 9 10 10 9 8 8 8 6 12 36 55 61 67 72 76 81 85 89 93 96 98 101 98 93 94 91 88 87 83 78 72 72 73 72
18 28 30 27 25 27 30 30 28 27 19 15 14 12 17 23 24 23 23 25 24 23 22 19 18 17 19 19 24 31 23 17 20 17 11 11 13 14 16 15 15 16 15 15 13 14 16 14 11 11 12 11 10 9 8 9 10 9 7 8 7 7 26 51 59 62 69 72 78 84 89 94 91 91 98 100 100 95 90 90 91 89 90 86 74 68 69 75
14 25 30 27 24 24 28 29 28 24 17 15 14 13 20 23 23 23 24 25 23 22 20 18 18 19 21 21 29 35 21 16 20 16 14 13 13 14 13 13 13 13 14 13 12 13 12 11 11 10 10 9 9 9 8 9 9 8 8 8 8 7 23 48 55 59 66 67 75 80 85 89 80 81 97 101 100 94 88 95 94 87 94 96 88 83 84 89
12 23 30 28 24 23 25 28 26 21 16 14 13 16 21 22 22 23 24 24 22 22 19 19 20 21 21 22 33 35 19 16 18 15 16 16 15 14 11 12 12 13 13 12 12 12 10 11 10 10 10 9 9 9 8 9 8 8 8 8 10 6 18 46 56 55 57 61 67 69 76 83 80 85 97 101 100 91 90 99 90 79 89 98 98 96 94 97
10 22 30 27 24 22 24 27 24 18 15 13 14 18 21 21 22 23 23 23 21 20 19 20 20 20 22 22 25 24 17 16 16 14 15 16 16 14 12 11 12 13 13 11 11 11 10 10 10 10 11 9 9 10 9 8 7 8 9 10 12 9 15 30 43 49 51 56 50 50 74 89 90 94 96 98 100 95 95 101 94 87 91 96 100 98 96 97
8 21 30 27 23 21 23 26 22 16 14 13 15 19 21 21 21 21 22 22 20 19 18 20 19 19 24 23 19 16 16 16 14 14 15 15 16 15 14 12 11 12 11 11 11 10 10 9 10 10 9 9 10 9 9 8 8 9 10 12 14 15 14 10 27 45 45 46 33 37 82 102 96 96 93 93 94 93 96 98 97 96 92 89 93 96 96 95
7 19 29 26 22 20 22 24 19 14 13 14 17 20 20 20 22 21 21 21 19 19 19 19 20 22 25 25 21 17 16 16 15 15 15 14 15 14 15 13 12 11 10 11 10 10 10 9 10 9 9 10 8 8 11 11 11 12 12 16 18 18 18 10 15 29 35 43 35 43 87 103 98 97 92 88 82 84 94 95 94 92 88 87 88 89 89 89
6 18 29 26 21 20 22 22 16 13 13 14 18 20 20 21 21 19 19 20 19 20 19 20 21 22 27 25 19 16 16 16 15 14 13 14 13 12 13 13 12 11 10 10 10 10 10 9 10 9 10 9 9 13 17 18 18 17 16 20 22 20 20 15 10 16 30 42 38 52 85 96 97 96 90 87 76 77 89 91 91 89 85 84 84 85 82 79
6 17 28 25 21 21 21 19 14 13 13 14 17 18 19 20 19 19 20 19 19 20 19 21 21 22 31 27 16 16 16 15 14 13 12 12 12 11 11 12 12 10 10 10 10 10 9 10 10 10 10 9 12 20 27 34 33 29 27 24 23 22 22 18 13 11 18 32 38 55 78 86 92 90 86 89 80 77 85 85 84 83 81 80 80 83 81 77
5 15 28 24 20 22 21 18 14 14 16 16 20 22 23 22 20 19 20 19 19 19 19 21 21 26 31 25 18 18 14 13 12 11 12 11 11 11 11 12 12 10 10 11 11 10 10 9 8 10 12 13 18 28 39 41 37 39 34 25 23 23 22 20 17 12 17 39 53 59 70 76 81 84 84 88 84 80 83 82 80 78 77 77 77 79 80 78
5 13 27 24 20 22 20 17 15 17 22 27 33 35 34 33 28 22 20 24 23 21 24 25 26 33 29 19 19 17 12 12 11 10 12 11 12 11 11 12 11 11 11 11 11 11 10 8 11 19 24 22 21 33 44 34 29 38 30 22 26 24 22 23 19 14 20 45 60 61 68 72 75 81 82 84 83 82 83 80 77 75 76 77 75 74 74 73
5 11 26 25 20 23 21 17 16 21 28 34 39 39 36 35 32 26 26 32 31 28 32 31 29 33 24 15 16 13 11 12 12 12 12 11 12 11 12 12 11 12 11 12 14 10 10 12 15 24 29 26 20 26 36 28 25 31 26 26 30 23 23 24 19 16 16 34 55 62 66 70 76 80 79 80 81 81 82 80 76 74 76 78 72 65 64 62
6 8 23 27 21 23 22 18 17 21 28 35 38 35 34 34 37 36 32 34 33 30 33 31 29 28 18 14 15 13 13 13 12 13 13 12 11 10 11 11 12 13 12 15 15 8 13 23 24 24 27 23 18 19 23 23 20 21 23 27 27 22 22 20 18 17 13 21 42 58 64 67 73 74 73 75 79 80 80 78 77 74 74 73 65 57 53 50
7 6 20 30 25 24 23 18 17 20 26 36 38 34 33 36 43 45 38 32 28 26 29 28 29 26 17 14 14 13 14 13 14 14 13 13 11 11 11 12 14 16 15 15 15 17 23 31 28 25 25 19 15 18 19 19 18 20 24 24 22 23 22 19 18 17 15 18 32 54 69 70 67 66 68 71 73 78 77 76 76 73 71 70 66 62 55 50
7 5 16 30 30 28 26 19 17 22 29 36 38 35 34 36 42 43 38 35 27 23 26 25 25 23 15 14 14 14 14 14 14 13 13 13 12 12 12 13 16 17 17 14 22 39 39 31 25 22 20 15 14 18 19 18 19 22 24 24 26 27 24 23 22 17 16 18 26 45 61 65 63 59 62 68 70 72 68 67 72 70 69 67 67 69 65 60
8 5 10 26 34 33 32 27 23 26 31 37 39 36 34 36 39 36 33 37 33 22 22 24 23 19 15 15 14 13 14 14 15 13 12 12 11 12 12 13 16 16 17 17 29 47 42 29 25 19 14 13 14 16 18 22 24 24 26 29 31 28 25 27 28 19 17 19 20 31 41 46 54 57 60 61 61 64 60 57 66 68 65 64 64 68 68 63
8 7 5 18 32 34 35 36 36 36 35 38 39 35 36 37 35 34 30 35 39 29 22 22 21 18 16 15 14 14 16 15 14 12 11 12 10 11 12 13 16 16 18 22 29 38 34 24 18 13 13 14 16 17 21 26 27 24 25 29 30 28 23 24 26 20 18 18 17 28 37 36 45 56 60 57 53 58 59 57 62 62 59 60 62 66 65 57
7 8 5 11 26 34 37 41 41 42 41 41 39 36 38 38 37 38 32 37 50 40 25 20 19 18 15 16 15 14 15 14 13 13 11 11 11 12 12 13 16 18 19 20 24 29 25 15 10 10 12 13 17 20 21 29 31 26 24 25 23 22 21 21 22 20 20 21 22 30 37 46 58 56 51 53 53 57 59 57 57 55 55 59 62 65 62 53
6 8 6 7 19 32 39 43 41 42 42 40 40 39 36 36 40 38 38 57 67 45 24 19 19 19 16 17 16 13 19 18 13 13 13 13 11 11 14 16 15 16 16 19 26 31 23 13 11 11 11 17 25 23 19 29 34 30 30 26 18 18 21 21 20 23 27 29 29 26 32 53 65 51 43 48 49 53 58 57 54 52 54 60 62 62 61 54
7 7 6 6 15 29 38 43 45 45 45 41 42 40 32 33 36 33 48 75 69 37 23 22 20 20 18 17 14 18 25 21 14 13 12 13 12 10 16 18 17 15 14 22 33 30 22 19 17 16 17 24 31 25 18 26 32 33 32 23 19 20 19 20 20 25 31 31 37 43 44 54 58 51 50 46 40 49 58 55 53 54 55 59 62 61 60 55
8 7 7 6 17 34 40 44 49 49 45 43 42 35 26 27 30 38 61 72 50 27 23 22 19 19 18 17 15 18 20 17 18 17 11 12 12 10 14 15 16 16 14 27 36 26 20 22 18 19 23 25 27 24 19 22 28 32 28 18 19 20 17 21 18 23 34 29 36 51 45 42 61 71 59 42 39 50 59 55 51 54 55 57 62 62 61 58
8 7 7 5 18 42 45 43 47 44 41 43 40 32 28 28 32 53 76 66 39 28 27 22 21 20 18 18 16 15 15 14 17 16 11 13 12 10 15 14 13 15 15 26 34 24 17 18 16 18 24 24 23 23 19 19 21 22 18 17 24 27 28 29 23 33 47 37 35 49 42 37 63 76 51 35 42 48 55 57 51 52 55 56 61 63 62 60
7 8 8 5 14 37 49 49 45 39 39 41 36 33 37 42 50 71 80 62 42 35 32 26 24 23 21 23 24 19 16 12 12 13 11 13 12 10 14 11 12 22 27 27 28 24 16 12 14 15 17 19 18 17 17 15 15 15 15 21 31 40 48 52 56 60 55 47 50 56 51 41 53 70 53 39 46 45 48 58 54 53 55 56 59 60 60 58
8 8 7 6 7 18 35 42 39 36 36 35 33 35 45 57 74 86 69 49 48 46 39 33 30 29 26 28 31 24 17 12 11 12 14 16 15 13 16 15 21 41 51 41 28 25 22 15 15 13 10 14 18 18 18 18 16 15 21 29 35 47 59 69 76 66 49 53 64 62 53 42 48 68 62 47 48 42 41 53 57 56 56 56 59 58 56 54
8 7 7 8 6 7 13 18 25 30 29 31 35 41 57 68 76 81 61 48 58 55 42 35 35 35 30 30 31 24 18 16 14 14 16 22 22 20 27 29 32 46 53 46 35 33 32 23 16 14 11 13 19 23 25 31 29 20 27 44 50 56 63 69 70 58 49 56 61 57 51 45 49 57 51 44 46 41 38 45 51 54 54 55 58 57 56 53
7 7 8 6 7 8 6 9 21 28 28 34 40 51 76 82 70 67 61 54 57 51 39 34 37 39 34 33 33 26 23 19 17 15 13 24 30 25 28 30 30 39 44 42 42 48 50 38 20 16 18 15 18 28 31 34 31 21 27 45 59 64 63 66 67 58 58 66 63 55 49 50 53 48 43 40 36 35 38 40 44 49 51 52 56 57 56 53
6 8 7 6 14 14 9 15 27 32 32 39 50 64 81 80 67 63 58 52 49 44 40 38 39 43 39 38 36 29 28 23 16 15 16 27 38 31 23 22 20 33 53 52 44 46 50 46 33 23 22 17 15 25 29 28 28 25 30 39 49 62 64 62 64 63 64 68 64 51 47 57 55 44 47 41 26 29 36 37 43 47 47 50 54 56 56 53
7 9 4 11 29 27 18 24 33 34 33 43 65 82 81 70 64 61 54 51 49 45 46 45 42 45 47 52 46 27 23 24 16 18 22 24 34 35 27 23 17 27 54 55 40 39 44 47 41 24 16 16 14 18 20 23 30 31 33 36 36 50 66 63 62 72 68 58 58 51 50 63 54 42 51 40 24 33 40 39 45 47 47 50 54 56 55 54
10 8 3 13 34 39 33 30 34 35 34 50 77 89 85 72 58 52 47 43 41 44 55 56 50 52 54 57 53 33 23 26 21 23 26 23 31 37 28 22 19 25 43 46 36 39 46 48 41 22 15 19 15 16 15 17 33 38 32 37 36 35 52 58 57 72 67 53 59 56 51 64 56 42 51 44 29 40 50 48 48 49 49 50 54 57 56 56
11 9 10 15 29 44 39 28 31 35 36 60 87 89 80 64 46 45 43 34 35 47 63 65 56 54 55 57 58 44 31 31 27 25 30 30 32 33 26 19 17 19 28 35 33 36 42 48 43 28 22 22 14 15 21 14 24 36 31 37 40 33 51 63 56 64 64 56 66 60 48 57 57 51 52 43 34 42 56 57 52 53 53 51 54 56 56 57
10 16 27 28 33 43 38 27 30 37 46 73 92 86 72 53 36 36 36 29 36 51 63 66 60 55 56 59 59 49 37 35 34 29 29 34 33 27 24 22 19 16 16 21 29 37 43 48 48 37 25 24 21 19 28 25 20 27 29 33 36 36 55 64 53 60 63 55 64 66 51 44 54 66 55 35 37 48 57 62 57 56 56 54 56 56 56 57
12 28 46 44 41 44 41 34 29 36 60 83 89 80 67 50 32 28 30 31 40 54 59 57 58 62 59 53 53 53 44 39 42 37 27 32 37 27 21 22 21 20 19 20 27 40 46 46 52 50 28 23 32 28 34 41 30 24 27 37 47 51 57 54 46 57 62 54 60 69 65 53 56 70 56 36 43 52 58 67 60 53 54 54 56 57 56 55
13 32 54 52 46 47 43 34 29 44 69 80 79 72 59 45 33 29 30 31 37 50 53 48 51 60 60 53 53 55 49 43 45 42 32 32 36 27 22 24 22 22 26 30 37 49 52 43 48 56 38 30 39 35 35 41 35 32 34 42 56 58 55 51 48 55 60 61 66 66 72 76 65 55 45 38 43 47 56 66 59 51 50 51 51 50 51 52
20 37 55 54 52 48 37 33 41 59 73 73 68 61 49 40 37 36 32 29 33 38 41 47 53 57 56 53 52 48 46 49 46 39 36 37 38 35 29 25 22 26 35 43 47 50 52 46 45 53 49 42 43 35 27 29 37 44 44 49 61 63 58 55 58 66 64 64 70 62 63 80 70 44 39 45 46 45 50 54 55 53 47 47 48 44 45 47
35 50 59 57 56 45 32 41 52 53 57 59 56 51 41 36 36 37 33 32 35 34 34 44 51 52 51 48 47 44 44 50 48 41 39 36 35 37 31 21 19 25 37 48 47 42 50 55 50 51 51 41 35 28 20 28 44 48 50 61 68 68 69 63 65 75 66 58 69 64 59 77 75 53 46 48 41 37 39 43 50 51 44 42 43 41 42 43
52 55 52 50 52 41 37 56 65 57 51 43 41 41 35 33 38 40 40 40 38 37 39 43 43 42 41 40 41 41 42 48 47 42 42 38 33 32 27 21 20 28 41 52 50 42 50 59 54 58 63 50 41 39 34 42 50 45 51 62 53 52 65 67 73 77 60 54 66 62 62 78 79 62 47 36 27 25 29 33 38 44 44 41 40 42 44 43
67 58 45 45 48 43 43 54 62 68 65 46 41 45 36 34 42 44 46 45 38 40 48 47 41 36 36 38 38 37 42 51 50 44 43 42 36 30 26 22 25 36 45 47 44 39 45 59 65 66 68 62 63 65 56 52 49 42 52 57 44 47 54 53 66 67 52 60 69 62 70 82 73 62 48 34 31 30 25 25 28 35 42 42 42 44 45 44
75 67 52 50 51 48 48 48 49 59 63 51 49 56 50 44 42 40 42 41 33 37 45 45 37 32 35 39 40 40 43 48 50 47 44 40 35 30 27 24 26 36 40 35 33 38 48 63 74 73 69 71 75 73 61 53 50 49 54 51 40 44 47 47 60 62 58 71 69 61 77 81 62 53 47 40 38 32 26 25 26 27 33 39 42 42 43 45
81 82 69 59 52 49 49 46 46 51 54 54 53 55 57 55 47 38 37 37 34 34 37 38 34 34 41 43 46 50 48 46 47 46 45 41 37 33 32 32 31 32 36 30 23 39 57 65 75 82 79 77 74 67 60 54 51 52 53 49 40 41 50 56 61 65 69 70 66 69 77 69 56 53 48 44 42 37 32 27 24 26 29 35 39 38 40 42
77 79 76 72 64 60 54 46 52 58 56 56 53 47 51 56 51 42 37 37 36 34 38 40 36 39 46 46 51 55 51 51 52 47 46 44 38 36 36 38 38 36 37 26 21 46 65 58 62 70 68 70 70 64 60 54 50 49 49 49 47 47 52 50 48 64 71 59 65 85 75 54 60 67 56 48 45 44 43 31 23 26 26 31 38 38 39 41
69 64 62 69 74 76 68 55 59 67 64 60 55 48 50 57 57 52 46 41 36 37 45 48 45 50 55 50 52 56 53 57 62 56 50 47 46 48 46 42 38 34 34 28 29 55 68 58 57 58 57 70 73 63 59 54 49 49 49 51 53 53 53 45 42 60 66 51 59 79 68 51 59 65 57 50 44 39 37 29 23 24 26 33 40 40 42 42
74 73 62 63 72 73 68 61 61 66 67 63 58 53 50 53 60 59 53 47 45 43 44 49 55 59 59 54 52 56 54 54 61 61 52 49 53 55 52 50 42 32 35 39 40 51 63 68 68 57 57 74 73 60 59 58 55 55 53 53 53 53 57 54 49 54 57 53 55 61 61 55 50 48 46 42 33 29 29 27 27 27 30 38 43 41 43 42
86 91 78 70 71 66 60 61 61 64 66 60 56 57 52 52 57 54 48 49 56 54 43 48 62 62 58 58 56 57 55 49 52 56 49 51 59 55 51 55 53 43 43 49 50 48 52 67 74 62 62 80 78 64 63 66 64 61 57 57 54 53 56 55 51 50 51 52 52 53 59 59 51 46 41 30 25 29 33 33 33 33 34 40 42 41 41 40
84 85 81 81 81 69 60 61 59 63 71 68 60 56 52 53 51 46 44 43 49 54 46 49 63 61 55 58 57 57 55 47 46 48 43 45 51 47 44 49 50 48 50 54 56 53 54 66 77 70 68 80 81 71 70 69 61 59 63 62 55 52 54 52 52 54 51 46 46 49 53 53 48 45 38 30 28 30 30 30 34 37 37 37 38 39 39 40
72 66 67 78 84 73 63 66 66 65 69 68 60 53 49 49 45 44 49 43 35 41 42 41 51 57 55 55 56 54 47 40 42 42 38 39 39 35 36 38 38 42 52 58 58 62 66 69 75 73 69 80 85 75 70 66 60 69 76 62 48 50 56 55 55 58 55 47 48 52 51 49 48 44 39 37 36 34 30 27 31 38 38 36 35 36 36 37
Wind_Speed
14 12 10 9 9 11 13 14 14 13 11 10 8 8 6 5 5 6 7 7 7 6 6 6 5 5 5 3 2 2 1 1 3 5 3 4 6 6 6 6 5 3 3 3 4 3 3 4 5 7 6 5 6 9 9 9 11 5 1 2 2 5 4 1 0 2 6 6 7 9 18 24 13 19 29 33 36 32 30 30 30 32 33 35 36 34 32 31
16 13 11 10 10 10 12 13 14 13 12 10 8 7 5 5 6 7 7 6 6 5 5 5 5 5 5 4 2 1 2 3 6 6 4 6 5 4 4 4 2 3 5 4 3 3 3 3 2 3 5 7 7 8 7 7 7 4 2 2 4 4 3 5 5 1 7 12 12 12 14 21 17 15 25 26 22 27 26 22 27 29 27 30 32 32 31 31
18 15 13 11 11 11 12 13 13 13 12 9 8 6 4 5 6 6 6 5 5 5 5 5 5 5 5 4 4 4 5 7 6 5 6 7 5 4 3 3 4 7 5 2 1 1 1 2 1 2 7 9 10 10 8 6 5 6 4 1 6 5 5 11 6 9 13 19 17 15 18 23 20 20 32 28 18 22 19 16 22 22 22 24 25 26 25 25
19 17 14 12 12 12 12 13 13 13 11 9 7 5 3 4 5 5 4 4 4 5 5 5 6 6 6 7 6 7 8 6 4 6 8 6 4 4 4 3 6 6 3 1 1 2 4 5 5 5 6 9 12 11 8 9 6 4 6 4 8 6 6 9 11 25 25 27 20 17 20 20 19 21 28 30 19 13 14 20 24 24 25 24 23 23 21 22
20 18 16 14 12 12 13 13 13 12 11 9 6 5 3 4 5 3 3 3 4 6 6 6 7 7 8 8 7 9 9 3 4 8 7 4 4 4 4 4 6 4 2 1 2 5 6 7 9 7 6 8 9 7 8 15 12 4 6 12 14 9 4 2 15 27 29 31 24 20 19 17 20 19 20 26 17 10 19 27 29 29 28 25 24 24 23 24
19 19 18 15 14 13 13 13 13 12 10 8 6 4 3 5 4 2 2 3 5 6 6 6 7 7 8 7 7 10 7 1 6 9 5 2 4 5 5 5 5 2 3 6 7 7 8 9 11 8 4 4 5 6 9 17 17 6 6 14 18 15 5 8 22 25 28 28 21 21 22 26 28 20 21 29 20 20 29 31 31 30 28 25 24 24 24 24
19 19 18 16 15 13 13 13 13 11 9 7 5 4 4 4 4 2 1 3 5 6 6 7 6 6 7 6 8 11 6 2 5 9 4 3 6 5 5 3 2 4 8 11 12 12 13 12 11 10 3 1 3 6 10 14 18 11 7 11 12 15 9 15 25 24 29 29 24 29 28 27 27 17 20 27 23 27 29 28 30 29 28 27 26 26 26 26
19 19 18 17 15 14 13 13 12 10 8 6 5 4 4 4 3 1 1 3 5 6 6 7 5 5 6 7 11 10 5 2 5 9 5 5 7 5 4 4 6 9 12 13 15 17 15 13 10 7 2 2 4 5 7 5 11 9 8 9 5 4 6 24 27 27 32 31 31 35 28 24 31 28 21 20 23 27 28 27 28 27 26 26 27 27 27 25
19 19 18 17 16 15 13 12 11 9 7 6 5 4 5 4 3 2 2 3 5 6 7 7 5 7 7 9 12 7 3 2 4 9 8 7 7 4 5 8 9 11 13 13 16 16 10 8 7 6 3 3 6 6 6 5 1 4 7 5 5 8 22 31 26 28 28 29 37 34 25 27 33 29 17 14 24 28 28 27 25 25 24 23 25 25 24 21
20 20 19 18 17 15 13 12 10 8 6 5 4 5 5 4 2 2 2 3 6 7 7 6 6 8 9 12 10 2 1 2 3 7 8 8 7 5 5 7 9 11 12 13 14 13 9 6 7 10 7 4 7 7 4 5 4 6 3 4 11 12 25 32 23 28 25 23 37 30 16 20 19 13 8 12 24 30 29 26 23 24 23 22 22 22 20 19
20 20 20 19 17 15 13 11 10 7 5 4 4 6 5 3 2 2 2 4 6 7 6 6 7 8 11 13 8 1 1 2 3 6 5 4 7 8 8 8 9 9 10 12 11 11 10 8 8 8 5 6 8 6 4 6 5 5 7 9 14 14 19 33 24 25 22 15 32 33 17 16 13 10 10 17 24 30 30 25 24 25 23 22 21 19 18 18
20 20 20 20 18 15 13 11 9 6 5 4 5 6 5 4 2 1 3 4 5 6 5 6 7 10 12 12 6 2 3 2 3 5 4 4 3 8 11 10 8 5 7 11 10 10 9 9 9 6 4 7 6 3 6 9 6 9 13 6 8 12 8 21 19 23 23 16 28 34 16 11 10 12 17 22 26 30 30 25 24 25 23 23 21 19 18 18
20 20 20 20 18 15 13 10 8 6 4 3 6 6 5 4 1 1 2 3 4 4 5 6 8 11 12 10 6 4 2 2 3 4 4 5 5 3 6 7 6 3 4 8 9 9 9 9 7 6 8 7 4 3 5 6 7 8 9 4 4 8 4 4 9 24 20 10 14 18 7 5 6 11 22 24 29 31 28 25 25 26 25 24 22 20 19 18
20 20 20 20 18 15 12 9 7 5 4 3 6 5 4 2 0 1 2 3 4 6 6 8 10 11 12 11 6 1 2 2 4 5 4 5 7 7 5 5 4 1 2 5 7 7 8 7 5 6 8 5 5 5 4 4 6 4 3 3 3 4 3 11 3 17 9 2 18 20 6 5 1 8 21 24 30 34 28 25 27 27 26 23 22 20 20 19
20 19 20 19 17 14 11 8 6 5 3 2 5 4 2 1 1 2 3 4 6 8 8 10 9 10 13 10 3 2 5 7 6 4 3 6 7 8 7 7 5 2 3 6 6 4 4 5 5 6 8 7 5 3 3 4 4 3 3 2 3 3 2 8 4 11 9 6 23 23 5 6 7 13 23 25 30 35 29 26 26 25 24 24 23 22 21 19
20 19 19 18 16 13 10 7 5 5 4 2 2 1 1 2 2 3 4 6 7 7 9 10 9 10 11 6 1 2 6 8 6 2 1 3 3 5 4 4 5 4 5 6 5 3 3 4 5 5 7 5 2 3 4 5 4 4 3 1 2 2 2 4 5 7 13 7 10 14 7 5 8 15 23 23 27 32 28 25 24 24 25 25 25 24 23 20
19 18 18 17 14 12 9 5 4 5 5 5 4 4 5 6 5 4 6 7 8 10 11 12 12 12 7 2 0 4 5 5 3 4 4 3 1 4 5 5 8 8 10 8 4 5 6 5 4 4 4 2 3 4 5 4 3 4 2 2 2 2 2 2 4 8 13 12 7 12 10 6 9 17 22 22 25 28 24 23 23 24 25 25 26 25 24 22
19 18 17 16 13 11 8 4 4 6 8 10 11 10 9 8 7 5 5 8 12 12 12 11 9 7 5 2 1 2 2 3 2 4 8 9 5 5 7 7 8 9 11 9 6 4 3 3 2 1 3 4 3 5 4 1 2 3 1 2 1 2 3 2 2 6 10 13 10 10 8 8 11 15 20 21 24 25 22 22 22 22 23 23 25 25 23 22
18 17 16 14 11 10 7 3 3 6 7 12 14 11 10 8 5 3 5 11 13 9 6 5 5 3 2 1 1 1 2 2 6 6 6 9 8 8 6 6 8 6 5 3 5 3 1 2 3 2 4 1 3 5 5 6 6 6 3 4 3 2 0 2 2 2 7 10 8 9 10 11 11 11 16 20 21 23 21 20 21 21 21 21 23 24 23 22
17 16 14 12 10 9 7 3 2 4 5 12 14 10 11 12 6 4 11 16 12 9 11 11 12 13 5 3 1 2 5 6 10 11 9 7 8 8 6 8 10 5 3 2 3 4 2 2 1 3 5 3 6 6 6 5 7 6 4 4 3 4 2 2 2 4 5 7 4 10 13 12 12 10 13 19 19 20 21 20 20 21 22 23 23 23 23 21
15 15 13 10 9 8 7 3 1 2 4 11 14 10 11 13 6 6 16 17 11 11 15 14 16 17 7 3 2 1 5 7 10 11 9 8 7 5 4 4 4 3 5 5 2 2 2 3 3 6 7 6 4 6 5 4 8 7 5 4 2 3 2 2 0 4 4 6 2 8 12 11 11 10 13 20 17 16 23 24 21 22 24 24 23 23 23 21
14 14 13 9 7 8 7 5 2 2 3 9 12 9 8 10 5 7 11 12 13 11 11 12 13 10 5 2 1 2 2 5 7 3 2 5 5 2 4 3 1 4 5 3 1 3 3 1 5 7 5 4 1 6 5 4 7 6 4 5 2 2 1 3 2 2 3 5 4 7 10 9 11 12 15 21 21 22 30 30 28 27 26 25 26 26 26 23
13 14 13 8 5 7 7 6 4 1 4 8 10 9 7 7 6 10 8 8 12 12 11 12 10 6 6 3 2 3 3 4 3 0 2 5 5 4 6 4 2 4 3 4 4 3 2 3 7 7 4 4 3 4 6 6 5 5 4 4 2 3 1 1 4 2 2 2 6 7 6 5 9 11 12 22 26 25 30 33 33 32 30 30 31 31 31 28
12 13 13 8 4 4 6 6 5 3 3 6 10 8 7 8 8 10 9 4 7 10 9 10 9 8 7 4 3 4 4 5 4 1 3 6 7 6 5 3 3 2 2 4 6 5 3 5 4 4 5 4 5 4 7 6 3 4 4 4 3 3 4 4 3 2 2 2 4 6 4 2 7 10 9 15 18 17 23 27 27 28 28 29 31 31 31 29
11 11 12 10 5 2 3 4 7 5 1 3 8 8 7 8 9 9 7 2 3 6 5 5 6 6 5 2 3 2 5 5 1 3 2 7 8 5 4 4 4 3 3 4 6 4 2 2 2 4 6 4 6 4 3 6 4 2 4 5 6 6 5 5 2 1 3 3 2 5 4 2 2 8 11 10 9 9 17 22 23 25 25 28 31 31 31 27
11 10 11 11 7 2 2 4 7 6 3 4 9 12 11 8 7 6 4 3 2 4 2 1 3 4 4 2 4 2 5 3 2 3 4 7 7 5 4 5 4 1 3 5 4 1 1 4 6 3 3 4 6 3 2 5 5 2 5 6 7 6 6 7 5 3 1 3 4 3 5 3 4 3 9 10 9 10 14 18 22 25 27 31 34 33 33 29
10 9 9 10 8 3 2 4 6 5 5 6 10 15 13 8 6 6 3 5 2 4 3 2 1 1 3 4 4 2 1 1 1 2 5 5 6 6 3 4 4 3 2 4 3 2 1 6 8 5 4 4 4 2 2 5 7 3 5 5 6 5 6 9 9 6 4 2 3 4 5 3 2 4 6 8 10 10 13 15 18 24 29 32 35 35 35 32
10 8 7 7 6 3 3 3 4 6 6 7 12 14 10 5 5 4 3 4 2 4 2 2 1 2 1 4 5 3 2 2 1 4 5 3 3 3 1 2 1 5 4 5 2 4 0 3 3 4 6 3 1 3 3 5 4 5 7 3 2 3 3 6 9 5 2 3 2 4 3 3 3 5 3 4 7 8 14 15 15 22 27 30 33 34 35 34
11 9 6 6 3 1 1 1 5 7 7 8 12 11 6 4 5 2 5 2 3 2 3 2 2 4 5 2 7 7 4 4 3 2 1 1 4 3 2 3 2 3 4 5 5 4 1 3 5 6 4 1 3 5 3 5 2 4 3 3 4 4 3 4 6 3 3 4 2 5 1 2 3 5 2 2 4 7 10 11 15 23 28 30 31 33 34 34
11 9 7 5 3 3 3 4 6 9 10 11 11 9 5 4 2 4 3 1 2 3 4 3 3 7 9 5 6 7 3 5 5 6 4 2 5 6 3 4 2 2 4 4 3 4 2 1 3 5 2 3 2 4 3 2 2 2 5 5 5 6 5 4 3 4 5 2 4 6 3 4 1 5 3 3 5 8 9 8 11 20 25 29 32 35 36 35
10 9 7 5 4 4 5 7 8 10 11 10 8 7 5 3 3 5 1 2 1 4 5 3 3 6 7 4 4 4 1 3 4 6 3 1 1 2 2 2 2 4 5 5 2 3 4 3 1 2 5 3 3 4 7 7 3 4 5 4 3 5 5 4 5 4 4 2 5 4 2 5 1 5 4 5 6 8 13 11 10 16 23 28 32 35 37 35
9 8 7 6 5 5 6 7 9 9 9 6 6 7 3 3 3 1 1 2 1 2 3 2 3 4 5 4 3 3 1 2 1 2 2 1 1 2 1 2 2 3 4 2 1 4 3 1 2 1 3 2 5 3 6 8 6 5 4 5 4 2 4 3 3 3 0 4 5 3 1 1 3 6 6 7 7 6 14 19 19 22 26 29 32 34 36 36
9 8 6 6 5 5 6 6 6 6 5 4 6 6 4 5 1 2 1 2 1 2 2 2 4 5 4 4 3 3 1 1 1 0 1 1 2 1 1 1 4 5 1 1 2 4 3 4 3 3 3 1 5 3 2 3 4 3 0 3 4 2 3 1 3 2 1 4 5 3 1 1 4 5 7 8 8 10 19 29 32 33 33 34 36 37 37 36
8 8 6 5 4 4 4 3 3 3 3 4 4 5 6 4 2 2 2 2 2 1 2 2 5 5 3 1 3 1 2 2 1 1 1 3 3 2 1 3 2 5 3 2 2 1 2 4 3 1 2 1 3 3 5 3 2 2 2 5 4 3 4 2 3 2 3 3 4 3 1 2 2 4 7 7 9 12 21 30 33 33 35 37 37 37 37 36
8 7 5 3 2 3 3 2 1 2 3 4 4 5 4 1 3 1 0 3 2 3 4 4 3 4 3 3 4 1 1 2 1 2 2 2 2 2 2 1 0 4 4 3 1 0 3 3 6 2 2 4 2 2 4 4 2 3 1 5 1 3 5 2 2 4 3 1 2 2 2 3 3 4 6 1 4 7 16 25 26 25 30 34 34 35 37 36
6 6 5 1 1 4 6 3 2 3 3 4 5 4 1 3 2 1 1 1 1 1 4 5 4 3 4 4 4 6 4 1 1 2 2 1 3 2 3 2 1 3 5 3 1 0 2 3 7 3 1 4 4 3 3 5 1 2 2 1 3 3 6 3 1 0 3 2 3 1 2 4 2 3 6 5 6 6 11 18 23 24 28 33 34 35 37 37
6 6 4 1 3 4 6 5 4 4 4 5 5 1 3 2 1 1 1 0 0 1 4 3 2 2 3 3 4 8 7 5 3 2 1 1 1 1 1 1 2 1 5 5 2 2 3 2 7 2 3 6 4 3 1 5 6 2 1 3 1 3 4 4 1 3 4 0 4 2 3 4 2 1 5 5 5 5 6 11 19 23 27 31 33 37 39 39
6 5 2 3 4 5 6 6 4 2 3 5 2 3 3 1 1 1 2 1 1 2 5 2 2 1 3 2 3 6 6 4 4 3 2 1 1 3 1 2 4 3 6 7 3 1 4 1 7 3 1 6 2 4 3 2 3 5 3 2 3 3 1 1 1 0 1 1 3 4 3 2 2 3 3 0 5 7 6 8 13 17 23 29 33 36 38 39
7 4 4 4 4 4 6 6 1 2 4 4 0 3 1 1 2 2 2 1 2 4 3 1 1 2 2 1 1 4 4 3 4 3 1 1 1 4 4 1 3 6 7 8 4 1 3 3 4 5 3 4 4 3 1 4 3 3 2 3 3 3 3 1 1 2 2 1 2 3 3 1 4 5 4 6 7 9 9 7 9 17 24 29 33 36 38 40
5 4 5 5 3 2 5 5 1 3 3 1 3 3 1 2 3 3 2 1 2 3 1 2 1 1 2 1 2 3 2 3 4 2 1 1 1 3 7 3 2 5 9 9 5 1 3 3 2 6 5 3 1 0 3 3 1 2 1 1 2 1 1 1 1 2 3 3 2 1 2 4 5 4 6 8 7 9 11 9 10 18 25 28 34 38 40 41
4 3 4 5 3 2 7 5 1 2 2 2 2 2 2 2 3 3 2 1 1 2 2 3 3 2 2 1 2 2 2 3 3 2 2 3 3 1 6 7 3 2 5 7 4 1 1 2 2 4 4 1 4 5 3 4 5 5 4 3 3 2 2 2 2 2 1 3 4 3 2 6 6 3 4 6 6 8 14 14 13 19 24 27 33 38 39 40
4 2 4 5 3 3 6 3 1 1 2 3 4 2 2 2 2 1 1 1 1 1 2 1 2 2 1 1 1 1 2 2 2 2 2 2 4 1 2 7 8 6 5 2 2 0 2 3 1 3 4 4 7 7 4 3 2 4 2 2 3 3 4 4 2 3 0 0 1 2 1 6 5 3 4 6 6 10 16 18 17 21 26 29 33 36 37 37
7 4 2 5 3 3 3 2 4 3 1 5 6 1 2 2 2 1 2 3 3 0 0 0 1 2 1 1 1 2 2 1 1 2 1 1 2 0 1 6 7 6 5 1 2 2 2 3 2 3 4 5 7 6 3 4 5 4 2 1 2 2 3 5 5 3 2 2 0 1 2 5 6 4 5 7 7 10 14 17 18 22 27 30 32 34 35 35
10 7 3 1 3 2 1 1 1 2 3 5 4 1 1 1 2 2 2 1 1 1 1 0 1 1 1 1 2 0 0 2 1 3 1 0 1 1 4 7 6 4 3 1 1 1 1 1 2 2 4 6 6 6 6 6 5 2 3 3 0 1 2 1 1 3 1 4 4 3 3 6 5 4 2 3 4 7 10 13 17 22 26 28 28 30 32 33
9 6 7 5 2 4 2 1 2 3 4 3 3 2 1 1 2 2 1 1 0 2 2 0 1 0 1 1 3 2 0 3 1 3 3 1 1 2 7 8 6 4 3 4 4 3 1 2 3 3 1 2 1 1 2 3 4 3 4 6 4 2 4 2 1 2 2 4 4 5 4 6 6 5 5 4 2 3 4 7 12 16 23 27 28 28 30 32
7 3 7 8 4 2 5 4 4 3 3 1 3 3 0 1 1 1 1 1 2 2 2 1 1 2 2 3 3 3 2 1 1 1 3 3 3 3 5 7 7 6 5 5 4 3 3 1 1 5 5 5 5 4 4 2 2 4 6 8 8 4 2 4 2 1 3 2 1 4 5 3 6 6 5 5 4 4 6 9 12 13 18 26 30 31 32 33
5 2 4 7 6 6 7 8 10 9 6 1 1 2 1 0 1 0 0 1 1 2 2 1 2 2 1 1 2 2 4 3 2 1 2 2 2 3 3 6 7 5 4 3 3 3 4 2 2 4 4 5 6 6 5 2 2 4 5 6 9 9 4 1 2 4 4 2 4 6 5 3 6 7 5 6 6 6 8 13 16 16 18 24 29 31 32 33
5 2 4 5 3 2 4 9 14 13 9 5 1 2 1 1 1 1 2 2 1 2 2 2 3 1 3 3 3 1 3 4 3 1 0 1 2 3 4 4 3 2 2 2 2 3 5 1 3 2 2 5 4 5 5 2 3 5 5 7 8 8 7 6 7 6 6 4 7 7 6 6 7 6 7 9 10 11 13 17 21 21 21 25 29 30 32 33
6 3 4 6 5 5 6 12 15 12 8 5 2 1 1 2 3 4 3 1 1 2 3 1 5 5 2 2 4 2 1 1 2 3 1 1 2 1 2 3 2 1 1 2 1 2 5 1 4 2 2 5 5 5 4 4 4 6 7 8 7 8 9 8 8 7 6 7 8 7 7 8 8 7 9 13 16 17 17 17 19 20 23 26 29 31 33 34
7 5 7 9 7 8 11 13 11 7 6 5 2 3 2 2 1 3 1 3 1 2 1 3 6 4 1 4 5 3 3 5 4 4 2 1 2 0 1 1 2 2 3 2 1 2 3 2 4 2 3 5 6 5 5 4 4 5 8 9 7 7 7 6 6 6 6 7 8 7 7 7 7 10 13 18 19 16 13 15 16 19 24 28 30 32 34 36
4 4 6 7 5 6 9 11 8 5 4 3 2 2 2 0 2 1 2 1 4 4 3 4 5 3 2 3 2 3 6 6 5 5 4 2 3 3 2 2 3 1 3 0 0 2 2 1 2 4 3 5 5 4 6 6 5 5 7 7 6 6 6 5 6 5 6 6 7 6 5 5 7 8 10 14 15 11 11 14 16 21 27 31 33 33 35 37
1 1 1 4 3 4 6 8 7 4 2 4 6 6 6 5 3 1 1 3 2 5 4 5 6 2 2 1 3 3 4 4 5 7 6 6 7 6 5 5 5 4 2 2 1 1 4 2 1 2 0 5 5 3 4 5 6 5 5 3 3 5 6 7 6 5 5 5 4 4 5 6 6 5 4 7 10 9 10 13 17 23 30 32 32 32 34 36
Wind_Direction
23 18 14 8 6 7 10 14 16 14 10 9 15 21 37 73 85 93 99 103 100 86 73 55 46 41 37 57 97 121 131 94 2 338 329 346 353 347 340 335 343 3 38 110 130 96 101 112 124 146 161 193 212 230 232 243 252 264 100 169 251 250 248 319 261 100 113 110 111 121 108 112 112 97 90 76 77 79 80 86 100 112 117 123 127 132 136 136
23 19 13 9 4 1 4 8 12 13 10 7 14 21 46 89 99 101 99 97 88 70 53 30 29 27 25 39 21 329 289 297 313 319 339 354 7 13 353 356 18 107 116 117 97 72 96 92 103 178 225 237 215 215 225 235 234 216 150 144 235 236 251 270 286 288 130 120 102 92 96 102 110 120 101 84 79 88 87 90 103 111 118 129 133 137 139 139
21 18 13 9 4 1 1 3 8 9 8 6 12 23 55 103 111 103 95 86 70 53 33 14 9 6 12 11 352 344 322 312 317 332 348 354 19 44 34 51 117 126 121 117 85 36 337 345 336 239 238 240 227 214 209 222 231 212 193 141 245 234 248 278 355 81 118 109 93 85 87 87 96 105 100 100 98 93 97 113 115 116 127 137 140 142 143 144
18 17 13 8 4 1 1 2 4 5 6 6 9 25 65 116 121 105 89 69 50 39 26 13 1 358 357 350 352 350 335 325 336 351 351 359 43 76 69 92 139 135 112 126 218 309 320 315 310 292 238 231 231 219 209 219 221 198 185 194 239 228 242 282 75 98 105 101 96 94 88 80 91 100 106 111 104 91 107 127 132 133 141 148 149 151 151 152
16 15 12 7 3 360 360 2 3 3 5 6 12 29 77 127 130 110 74 43 33 31 24 13 2 356 350 348 357 355 356 5 346 352 355 12 86 110 87 100 136 140 81 30 318 329 314 312 323 297 211 210 221 208 227 223 217 236 219 222 234 222 236 301 112 114 111 110 108 99 88 88 91 82 98 109 104 129 135 137 141 141 148 155 156 157 158 158
13 12 10 6 1 359 358 0 3 5 4 10 20 35 89 134 142 121 50 27 27 29 25 14 8 2 352 349 357 356 5 1 334 352 359 50 114 129 111 104 107 93 357 356 346 345 324 328 336 307 215 197 201 189 238 226 213 236 252 241 239 230 233 101 118 121 116 113 106 103 103 103 94 71 85 100 110 139 139 140 141 141 146 150 153 157 162 163
11 9 8 4 360 357 356 359 4 6 7 15 26 50 101 142 151 135 31 30 33 32 25 17 15 7 351 339 346 348 342 286 344 8 10 104 126 135 120 100 32 347 343 347 342 339 331 331 324 301 276 267 241 222 259 237 210 213 251 254 240 238 230 128 122 119 113 108 107 110 107 101 97 91 91 98 120 136 135 139 138 139 141 144 151 156 162 163
11 7 4 2 359 355 355 359 3 7 10 20 38 71 117 142 147 131 39 41 33 30 24 23 24 4 351 340 342 341 339 343 14 25 38 111 124 121 90 28 359 346 341 343 341 337 327 320 310 299 256 301 322 271 297 271 207 208 243 257 277 290 132 124 122 115 111 112 113 106 99 97 103 109 103 108 132 135 134 137 137 139 140 144 152 157 162 160
10 6 2 360 357 354 354 358 4 8 11 26 53 94 130 140 142 121 64 43 29 26 19 20 13 353 343 337 341 338 354 23 20 32 56 102 113 97 49 27 9 352 346 349 348 343 329 313 317 346 331 320 349 324 346 30 199 259 258 270 5 58 106 117 117 112 113 114 109 101 102 111 112 107 97 122 137 135 135 133 135 139 141 146 153 158 162 158
9 6 2 358 356 354 353 358 5 8 13 34 72 116 137 143 140 117 60 30 25 21 15 14 0 349 339 335 342 356 24 5 359 29 54 81 88 70 44 33 9 356 354 353 354 352 352 345 336 347 340 338 350 327 356 52 350 312 296 43 46 65 112 119 115 112 110 109 106 103 107 112 119 112 102 148 137 133 133 128 135 140 139 145 150 156 159 158
7 5 1 357 356 354 354 359 5 9 18 42 98 132 141 148 140 106 44 24 19 12 7 357 342 342 338 334 328 259 11 356 336 4 23 45 64 52 45 41 18 359 348 348 353 355 3 359 338 340 344 343 335 313 352 12 338 4 43 48 34 32 114 123 122 121 110 104 105 100 87 82 94 105 131 154 137 134 133 131 141 140 140 142 144 151 155 159
6 4 0 358 356 354 357 1 5 12 23 57 123 143 145 146 138 74 30 8 5 2 352 340 333 337 341 339 329 325 2 357 341 357 353 333 16 42 44 44 35 16 347 349 351 352 360 353 339 334 332 332 325 319 347 350 3 45 51 53 22 17 108 125 130 132 117 129 114 94 76 65 83 118 141 146 135 136 135 135 141 137 139 139 139 146 148 151
5 3 0 358 356 356 0 3 6 14 29 87 138 147 145 143 138 24 5 347 350 338 321 325 330 335 339 334 337 11 8 327 327 319 335 330 306 349 35 30 26 44 354 343 346 342 337 341 344 325 321 319 304 327 317 339 36 41 46 79 39 26 351 12 121 130 120 159 132 91 78 66 62 131 143 142 135 136 135 136 138 134 138 139 138 142 142 145
5 4 0 359 358 359 4 7 9 17 38 114 149 149 145 141 264 299 322 317 313 311 310 328 338 340 335 319 320 25 185 241 294 293 294 296 305 316 302 293 316 18 306 324 348 339 324 337 341 311 320 316 292 317 318 351 46 29 26 60 43 68 316 319 63 120 100 111 108 98 112 120 114 163 150 148 139 134 134 138 139 136 137 139 143 145 145 147
4 3 1 0 359 1 7 10 12 25 47 125 159 158 150 154 281 297 312 306 305 307 310 323 333 336 329 318 317 141 184 209 240 293 293 268 297 315 289 263 279 296 269 303 342 342 334 341 315 301 312 314 306 335 1 354 23 35 46 9 355 80 273 309 14 101 107 106 100 100 110 134 156 170 154 152 144 136 136 143 145 143 142 143 148 149 147 148
3 4 2 1 1 4 10 14 23 37 54 103 143 148 336 313 291 294 297 296 298 297 303 312 318 323 321 322 334 215 204 204 228 272 321 271 298 316 303 236 259 283 264 290 340 329 319 319 301 301 302 308 8 70 41 9 356 9 79 80 334 59 321 314 352 65 111 119 83 101 129 138 151 163 155 153 146 139 140 147 150 148 145 144 147 150 150 151
2 4 2 1 3 6 13 23 39 52 63 59 36 9 344 326 311 295 289 292 286 284 292 291 291 300 296 274 322 257 223 195 227 260 266 253 196 319 310 240 254 279 276 285 316 304 296 294 299 304 310 359 73 81 53 21 343 327 54 80 320 64 31 340 336 13 82 101 85 106 126 141 148 154 156 157 148 142 143 149 151 149 148 150 150 151 153 156
1 4 3 3 5 9 16 31 58 75 68 42 26 16 360 338 315 300 306 311 297 290 292 282 274 293 291 237 204 266 217 185 257 274 257 237 230 302 293 265 280 279 275 282 276 284 298 293 335 6 351 21 47 84 92 210 176 235 217 111 294 46 41 354 314 352 64 97 111 111 121 131 139 151 157 159 150 144 146 149 154 155 152 153 154 153 156 160
360 3 4 4 8 12 17 32 82 100 71 35 24 22 17 5 341 321 325 319 309 298 290 272 248 270 305 209 171 235 212 258 305 302 260 239 254 284 271 275 297 267 244 290 281 275 81 320 3 27 326 349 150 134 163 193 159 179 188 133 150 121 339 294 276 311 76 98 123 129 133 138 144 154 155 158 153 145 148 152 156 159 156 156 157 157 159 161
358 3 4 7 15 19 21 35 106 121 66 28 20 25 26 19 15 344 326 317 309 296 290 284 270 270 290 53 70 260 254 277 302 301 291 279 269 270 265 266 280 274 212 186 263 257 127 49 336 224 254 230 186 177 175 163 132 140 127 111 141 146 222 280 317 308 71 99 158 148 143 152 153 153 155 158 154 147 151 158 163 164 164 165 163 161 162 162
356 2 5 11 23 31 36 42 86 103 48 20 19 30 27 23 25 337 331 321 306 297 296 296 281 269 276 8 18 243 258 285 309 302 284 287 279 264 282 267 256 281 251 223 234 248 114 60 292 235 236 261 224 169 162 133 118 117 116 113 135 154 225 266 301 311 36 91 162 152 142 155 153 148 158 156 154 164 165 163 170 172 170 171 170 170 168 163
354 0 6 14 34 44 48 55 72 76 9 4 19 32 24 22 9 329 331 310 295 299 298 298 287 260 240 310 7 143 261 298 315 314 232 281 296 285 312 340 206 244 242 224 12 5 35 23 274 263 253 296 269 157 137 98 103 96 107 120 154 206 274 310 301 335 28 86 146 163 147 161 167 157 164 167 168 178 175 169 172 175 176 176 176 175 172 166
352 357 4 11 38 52 57 61 64 29 342 358 19 25 7 356 329 317 318 290 288 300 294 287 282 236 204 225 230 239 295 317 296 5 39 325 335 345 325 330 265 248 200 160 138 82 35 260 265 284 311 23 35 126 95 58 67 98 120 120 178 235 118 295 295 5 24 92 136 153 135 147 175 166 169 180 181 179 177 175 175 178 181 181 179 176 172 168
350 353 1 5 21 56 66 55 29 357 332 11 27 22 357 334 317 313 314 289 280 296 286 272 267 232 208 204 223 261 309 318 285 189 30 357 5 352 323 317 313 343 74 139 130 120 182 239 264 329 346 35 57 74 99 87 65 114 149 145 163 215 175 188 263 3 20 1 125 124 87 101 174 172 184 195 192 181 176 176 178 184 186 180 175 174 173 170
351 350 355 2 5 31 72 50 32 34 21 13 12 357 338 326 327 324 319 323 284 297 291 261 250 216 198 173 195 261 327 313 294 115 39 11 17 351 318 341 3 37 84 119 101 103 186 266 5 25 342 356 61 63 133 129 116 164 209 196 186 201 189 188 235 41 37 318 225 113 92 300 218 175 188 199 199 180 175 179 184 187 183 175 172 174 175 174
350 350 351 358 7 19 105 48 29 31 19 356 352 340 321 303 321 328 329 33 332 295 314 239 204 201 229 230 204 243 338 320 107 83 355 358 19 10 337 348 17 91 177 142 101 110 242 3 22 41 339 0 54 59 193 130 114 222 235 190 189 198 191 191 180 139 119 247 253 102 130 243 312 212 197 189 191 187 178 183 187 183 176 173 174 175 176 177
345 351 350 352 7 37 106 47 15 1 352 345 345 339 322 298 308 312 340 46 355 300 307 220 181 262 239 217 204 179 8 287 109 345 319 330 5 22 343 321 4 311 265 97 66 267 231 23 28 37 32 43 54 45 188 123 111 231 243 164 170 221 225 199 171 167 197 193 336 22 104 130 291 256 224 183 177 181 180 187 189 182 177 175 176 178 179 180
340 345 349 347 3 56 97 43 354 344 344 333 336 339 329 306 302 311 71 78 299 308 331 240 240 321 243 212 226 206 189 199 134 321 310 301 323 16 7 279 313 276 283 96 119 259 283 39 57 66 42 47 226 242 198 131 113 239 243 156 124 282 250 178 155 171 201 97 348 313 77 100 257 272 276 173 160 171 187 192 187 182 181 178 176 178 180 181
337 338 342 343 342 158 119 333 309 324 326 323 334 338 332 315 309 8 83 103 279 320 358 337 330 332 347 300 256 267 259 218 169 188 241 161 241 263 285 277 265 281 296 108 143 231 216 168 160 114 69 319 252 260 207 132 145 260 270 55 42 17 28 98 124 130 49 75 214 260 97 114 264 285 298 161 165 178 189 194 188 185 183 179 176 176 178 181
334 333 329 333 314 243 229 255 291 322 326 325 331 331 330 323 346 59 58 266 277 321 331 344 341 337 356 4 295 293 254 207 183 175 189 183 222 245 275 280 280 42 354 42 118 226 242 133 137 108 133 219 225 300 322 108 189 312 24 39 31 16 26 45 69 88 64 28 249 249 204 131 276 279 233 198 204 173 167 188 189 182 180 177 176 175 176 179
332 331 322 318 309 271 247 255 288 316 322 322 329 334 341 347 67 85 77 249 262 327 339 348 334 344 359 12 317 308 231 216 198 167 204 273 214 271 357 335 318 51 16 7 31 312 356 36 35 140 193 212 69 2 334 346 358 47 50 51 40 353 6 22 359 37 77 273 263 248 179 120 142 264 238 235 239 168 155 177 184 175 176 174 174 176 177 180
330 327 319 313 308 291 277 277 291 309 315 323 341 342 0 43 38 91 233 289 300 309 333 321 314 334 339 337 302 269 250 244 224 146 186 149 98 262 163 149 161 49 5 315 347 341 349 272 265 131 213 202 79 28 332 347 14 48 46 55 68 359 2 14 330 359 145 246 254 227 140 110 229 246 237 233 247 195 163 172 176 172 172 171 173 176 177 180
326 324 320 312 307 298 293 296 305 314 316 330 347 350 54 80 2 244 274 345 251 245 297 327 315 314 329 340 308 283 319 243 220 226 215 126 83 216 235 169 136 102 96 202 37 3 339 308 336 48 334 14 106 104 320 330 1 13 5 107 105 98 54 331 280 330 275 269 278 249 179 297 286 268 245 224 224 200 166 168 176 175 172 172 175 176 177 180
322 323 323 317 319 312 303 314 334 335 338 348 4 28 62 75 251 257 20 310 264 279 324 336 319 315 332 295 261 291 13 276 241 66 25 37 44 91 42 347 58 98 107 85 52 76 49 326 291 172 260 218 128 162 172 164 6 320 191 131 126 145 135 204 229 194 235 274 302 296 152 188 221 258 256 224 206 186 159 164 174 175 174 172 172 174 176 179
317 317 324 329 5 31 26 17 6 29 12 1 30 62 80 145 251 307 328 264 311 350 320 332 354 344 339 301 279 300 119 243 281 38 40 78 96 155 167 255 43 104 98 78 344 101 81 272 263 264 192 176 182 215 152 102 17 292 104 89 119 180 148 160 191 176 184 282 310 287 211 212 203 261 291 51 146 146 138 150 158 162 169 168 168 173 177 179
312 312 328 325 146 69 50 40 56 51 25 35 58 64 158 204 207 173 218 257 14 351 336 350 21 25 336 321 332 342 352 323 323 27 357 117 132 173 183 192 197 133 115 118 184 36 54 276 276 311 272 201 180 191 153 122 144 311 46 97 234 165 123 112 285 316 84 79 280 261 255 290 338 305 319 35 85 98 112 137 145 149 160 165 167 173 178 181
316 320 331 182 159 99 59 36 40 49 34 64 84 167 221 216 229 194 212 308 244 92 58 26 335 23 354 336 342 339 344 344 336 3 309 279 134 240 201 88 6 105 135 128 155 186 125 285 283 260 247 255 194 140 144 151 144 109 97 209 214 61 77 103 94 358 40 93 273 290 254 281 15 291 317 25 95 126 121 136 143 149 156 164 172 176 179 183
334 1 44 137 138 105 67 36 33 79 58 67 94 238 225 245 301 182 179 144 83 58 75 85 271 15 37 6 324 320 339 351 335 335 293 269 25 324 323 80 14 31 127 121 90 191 117 30 294 291 329 293 314 64 354 306 125 131 168 176 103 85 346 25 110 319 16 239 280 308 288 243 178 218 272 319 159 164 161 148 148 158 162 166 173 177 179 181
339 28 83 113 114 88 50 22 1 129 67 60 216 257 241 209 216 154 135 147 103 75 71 183 272 17 33 35 289 303 336 354 328 329 321 143 81 333 335 104 41 38 78 98 106 203 93 90 280 301 355 320 341 39 292 291 344 62 71 15 47 137 169 179 175 160 152 202 257 311 329 269 228 218 194 206 197 169 169 168 167 177 173 169 172 175 178 180
346 46 102 116 109 54 360 344 321 114 84 134 201 221 224 192 202 176 142 178 132 104 127 219 173 7 309 325 306 294 337 347 332 345 358 1 73 351 353 25 92 53 53 62 76 70 52 87 246 300 346 11 333 276 193 220 243 80 74 333 359 44 127 114 280 160 133 146 184 243 306 273 255 215 181 201 198 170 173 178 186 189 181 173 172 174 177 181
10 54 120 140 141 321 324 320 265 123 114 236 220 224 231 170 174 194 171 173 156 154 194 192 154 181 224 323 330 311 341 336 334 14 1 5 72 32 349 16 64 74 46 44 43 43 65 109 210 292 337 334 240 243 247 242 209 156 158 195 171 136 123 101 299 284 110 135 164 164 246 266 261 227 197 200 189 180 182 180 186 194 188 179 177 178 180 184
23 43 151 163 178 298 316 321 293 129 141 255 259 236 208 142 135 200 197 12 7 182 207 200 160 171 197 238 289 351 19 338 330 20 6 17 62 98 358 45 70 81 80 60 337 293 129 105 65 285 262 248 262 271 284 270 200 128 126 166 142 119 117 126 206 257 300 7 195 134 214 267 265 243 223 213 191 180 184 187 188 191 191 188 186 185 186 189
360 345 186 188 215 303 326 338 340 346 254 275 282 269 93 102 102 74 62 23 359 14 43 311 132 100 114 196 158 32 32 25 317 348 335 2 30 156 114 80 77 72 76 84 294 344 57 80 42 305 288 295 305 312 354 38 64 60 354 18 134 149 145 153 177 182 175 237 268 84 262 271 274 253 220 211 189 163 170 184 191 194 195 195 193 191 189 190
353 350 13 163 218 268 336 157 301 304 285 306 324 16 78 97 102 80 68 31 346 120 87 336 98 96 230 198 107 38 77 107 315 322 354 205 245 182 82 74 71 55 58 154 168 60 10 78 83 17 337 337 341 349 357 5 27 24 308 310 189 81 48 77 136 89 217 223 162 140 238 258 273 291 277 233 197 170 166 171 184 197 200 199 198 195 191 189
1 0 14 22 215 234 303 269 194 247 273 326 333 295 324 52 67 87 138 247 240 135 121 296 316 15 258 28 39 333 126 132 217 316 352 321 301 50 63 68 75 69 76 113 109 89 115 154 114 105 169 258 278 325 317 320 332 329 316 319 327 43 58 38 91 78 269 238 149 150 217 262 287 317 331 309 206 189 199 172 175 193 201 203 203 199 194 190
20 6 350 356 352 329 327 333 13 339 279 358 352 300 5 87 260 144 131 35 43 74 92 78 38 45 35 35 24 325 317 134 182 359 10 345 338 15 60 89 99 100 102 99 80 73 90 80 121 139 161 193 198 214 231 242 313 305 303 314 314 308 84 91 92 149 201 207 228 215 206 248 288 294 301 278 209 192 224 206 184 184 195 201 201 200 198 194
34 38 356 351 348 355 348 351 10 357 308 305 25 275 263 205 266 75 160 269 88 85 48 15 54 74 78 48 43 296 301 340 29 54 24 1 337 339 30 90 100 104 109 86 48 78 84 14 300 155 179 212 203 225 259 277 270 268 277 294 298 295 306 24 236 222 173 144 282 255 199 195 261 262 251 245 225 208 220 211 196 191 194 199 199 197 195 192
25 4 24 14 334 337 354 334 337 334 313 300 261 234 261 214 205 206 240 261 203 141 103 355 320 256 206 182 134 222 305 353 10 333 332 12 345 354 5 23 65 94 114 79 30 96 104 290 260 189 256 263 243 261 287 311 283 277 281 280 285 288 282 267 252 220 168 187 247 238 202 206 240 245 232 230 226 224 225 213 202 200 199 195 192 189 186 185
23 353 358 2 332 293 303 309 315 321 315 306 291 256 234 184 211 241 218 122 344 242 142 149 274 274 253 169 126 129 277 347 326 291 284 25 337 16 18 348 327 286 112 94 38 89 102 237 246 179 332 307 295 291 322 360 325 304 301 286 275 265 251 245 254 238 204 219 239 233 226 234 242 234 235 245 245 241 240 227 210 203 198 190 185 184 182 181
36 12 334 337 330 311 315 319 325 332 327 330 322 279 269 159 196 300 262 133 152 267 164 170 233 244 120 101 108 134 202 176 187 241 208 99 1 12 148 226 223 297 350 66 22 36 95 239 249 108 36 312 298 310 340 354 319 296 296 287 277 277 265 245 244 245 238 248 253 250 253 261 253 233 236 252 256 252 252 244 222 201 191 186 184 184 184 184
50 22 343 337 327 319 333 335 336 338 325 334 332 288 311 214 200 319 335 213 173 188 192 182 207 222 87 90 123 198 214 192 196 235 232 228 255 220 203 207 178 44 347 300 131 50 107 236 318 64 40 290 285 326 333 330 325 301 284 284 300 308 287 254 240 223 207 224 248 265 271 265 259 248 246 257 259 248 242 240 224 200 188 185 185 187 189 191
316 183 3 5 327 303 343 341 337 354 331 321 329 307 292 286 269 138 358 300 171 144 148 154 152 124 45 265 241 246 252 251 265 278 287 297 285 259 250 248 204 178 206 193 152 149 143 127 24 97 67 279 278 314 336 351 354 313 259 245 321 308 285 278 272 243 206 187 196 227 237 239 250 259 261 268 267 253 239 235 218 196 186 185 189 193 196 199